Time,TemperatureF,DewpointF,PressureIn,WindDirection,WindDirectionDegrees,WindSpeedMPH,WindSpeedGustMPH,Humidity,HourlyPrecipIn,Conditions,Clouds,dailyrainin,SoftwareType,DateUTC
2013-07-13 00:01:00,63.0,59.0,30.01,ENE,58,0.0,1.0,87,0.00,,,0.00,,2013-07-13 05:01:00,
2013-07-13 00:11:00,62.0,59.0,30.02,ENE,58,0.0,0.0,89,0.00,,,0.00,,2013-07-13 05:11:00,
2013-07-13 00:22:00,62.0,59.0,30.02,ENE,58,0.0,0.0,89,0.00,,,0.00,,2013-07-13 05:22:00,
2013-07-13 00:32:00,61.0,58.0,30.01,NE,56,0.0,0.0,91,0.00,,,0.00,,2013-07-13 05:32:00,
2013-07-13 00:42:00,60.0,57.0,30.02,NNW,340,0.0,1.0,91,0.00,,,0.00,,2013-07-13 05:42:00,
2013-07-13 00:52:00,60.0,57.0,30.02,NNW,340,0.0,1.0,91,0.00,,,0.00,,2013-07-13 05:52:00,
2013-07-13 01:02:00,60.0,58.0,30.02,NNW,340,0.0,0.0,92,0.00,,,0.00,,2013-07-13 06:02:00,
2013-07-13 01:11:00,60.0,57.0,30.03,ENE,63,0.0,1.0,90,0.00,,,0.00,,2013-07-13 06:11:00,
2013-07-13 01:22:00,60.0,57.0,30.03,ENE,63,0.0,1.0,90,0.00,,,0.00,,2013-07-13 06:22:00,
2013-07-13 01:32:00,60.0,57.0,30.04,NNW,345,0.0,0.0,90,0.00,,,0.00,,2013-07-13 06:32:00,
2013-07-13 01:43:00,60.0,57.0,30.03,North,358,0.0,0.0,91,0.00,,,0.00,,2013-07-13 06:43:00,
2013-07-13 01:52:00,60.0,57.0,30.03,North,358,0.0,0.0,91,0.00,,,0.00,,2013-07-13 06:52:00,
2013-07-13 02:02:00,60.0,57.0,30.04,North,5,0.0,0.0,91,0.00,,,0.00,,2013-07-13 07:02:00,
2013-07-13 02:11:00,60.0,57.0,30.04,West,259,0.0,1.0,91,0.00,,,0.00,,2013-07-13 07:11:00,
2013-07-13 02:22:00,60.0,57.0,30.04,West,259,0.0,1.0,91,0.00,,,0.00,,2013-07-13 07:22:00,
2013-07-13 02:33:00,60.0,58.0,30.03,West,281,0.0,0.0,92,0.00,,,0.00,,2013-07-13 07:33:00,
2013-07-13 02:44:00,59.0,57.0,30.03,West,281,0.0,1.0,93,0.00,,,0.00,,2013-07-13 07:44:00,
2013-07-13 02:53:00,59.0,57.0,30.03,West,281,0.0,1.0,93,0.00,,,0.00,,2013-07-13 07:53:00,
2013-07-13 03:02:00,59.0,57.0,30.03,WNW,297,0.0,0.0,94,0.00,,,0.00,,2013-07-13 08:02:00,
2013-07-13 03:22:00,58.0,57.0,30.02,WNW,297,0.0,0.0,95,0.00,,,0.00,,2013-07-13 08:22:00,
2013-07-13 03:33:00,58.0,57.0,30.02,WNW,297,0.0,0.0,95,0.00,,,0.00,,2013-07-13 08:33:00,
2013-07-13 03:43:00,58.0,57.0,30.02,WNW,297,0.0,0.0,95,0.00,,,0.00,,2013-07-13 08:43:00,
2013-07-13 03:52:00,58.0,57.0,30.02,WNW,297,0.0,0.0,95,0.00,,,0.00,,2013-07-13 08:52:00,
2013-07-13 04:02:00,58.0,57.0,30.02,WNW,297,0.0,0.0,95,0.00,,,0.00,,2013-07-13 09:02:00,
2013-07-13 04:22:00,57.0,56.0,30.03,WNW,297,0.0,0.0,96,0.00,,,0.00,,2013-07-13 09:22:00,
2013-07-13 04:33:00,57.0,56.0,30.04,WNW,297,0.0,0.0,96,0.00,,,0.00,,2013-07-13 09:33:00,
2013-07-13 04:43:00,57.0,56.0,30.02,WNW,297,0.0,0.0,96,0.00,,,0.00,,2013-07-13 09:43:00,
2013-07-13 04:53:00,57.0,56.0,30.02,WNW,297,0.0,0.0,96,0.00,,,0.00,,2013-07-13 09:53:00,
2013-07-13 05:01:00,56.0,55.0,30.02,North,9,0.0,0.0,97,0.00,,,0.00,,2013-07-13 10:01:00,
2013-07-13 05:11:00,56.0,55.0,30.02,North,9,0.0,0.0,97,0.00,,,0.00,,2013-07-13 10:11:00,
2013-07-13 05:22:00,56.0,55.0,30.02,North,9,0.0,0.0,97,0.00,,,0.00,,2013-07-13 10:22:00,
2013-07-13 05:32:00,56.0,55.0,30.02,North,8,0.0,0.0,97,0.00,,,0.00,,2013-07-13 10:32:00,
2013-07-13 05:43:00,56.0,55.0,30.03,North,9,0.0,0.0,97,0.00,,,0.00,,2013-07-13 10:43:00,
2013-07-13 05:52:00,56.0,55.0,30.03,North,9,0.0,0.0,97,0.00,,,0.00,,2013-07-13 10:52:00,
2013-07-13 06:02:00,56.0,55.0,30.03,North,8,0.0,0.0,97,0.00,,,0.00,,2013-07-13 11:02:00,
2013-07-13 06:11:00,56.0,55.0,30.05,North,8,0.0,0.0,98,0.00,,,0.00,,2013-07-13 11:11:00,
2013-07-13 06:22:00,56.0,55.0,30.05,North,8,0.0,0.0,98,0.00,,,0.00,,2013-07-13 11:22:00,
2013-07-13 06:32:00,56.0,55.0,30.05,North,9,0.0,0.0,98,0.00,,,0.00,,2013-07-13 11:32:00,
2013-07-13 06:42:00,57.0,56.0,30.05,North,8,0.0,0.0,98,0.00,,,0.00,,2013-07-13 11:42:00,
2013-07-13 06:52:00,57.0,56.0,30.05,North,8,0.0,0.0,98,0.00,,,0.00,,2013-07-13 11:52:00,
2013-07-13 07:02:00,58.0,57.0,30.05,North,9,0.0,0.0,98,0.00,,,0.00,,2013-07-13 12:02:00,
2013-07-13 07:12:00,58.0,57.0,30.06,North,9,0.0,0.0,98,0.00,,,0.00,,2013-07-13 12:12:00,
2013-07-13 07:22:00,58.0,57.0,30.06,North,9,0.0,0.0,98,0.00,,,0.00,,2013-07-13 12:22:00,
2013-07-13 07:32:00,59.0,58.0,30.06,North,8,0.0,0.0,97,0.00,,,0.00,,2013-07-13 12:32:00,
2013-07-13 07:43:00,61.0,60.0,30.06,NNE,20,0.0,1.0,96,0.00,,,0.00,,2013-07-13 12:43:00,
2013-07-13 07:52:00,61.0,60.0,30.06,NNE,20,0.0,1.0,96,0.00,,,0.00,,2013-07-13 12:52:00,
2013-07-13 08:01:00,62.0,60.0,30.05,NNW,345,0.0,1.0,92,0.00,,,0.00,,2013-07-13 13:01:00,
2013-07-13 08:12:00,64.0,61.0,30.05,NNW,345,0.0,1.0,89,0.00,,,0.00,,2013-07-13 13:12:00,
2013-07-13 08:22:00,64.0,61.0,30.05,NNW,345,0.0,1.0,89,0.00,,,0.00,,2013-07-13 13:22:00,
2013-07-13 08:32:00,66.0,60.0,30.06,NE,51,0.0,3.0,82,0.00,,,0.00,,2013-07-13 13:32:00,
2013-07-13 08:43:00,68.0,62.0,30.07,NNE,26,0.0,2.0,82,0.00,,,0.00,,2013-07-13 13:43:00,
2013-07-13 08:53:00,68.0,62.0,30.07,NNE,26,0.0,2.0,82,0.00,,,0.00,,2013-07-13 13:53:00,
2013-07-13 09:02:00,69.0,61.0,30.07,WNW,284,1.0,5.0,77,0.00,,,0.00,,2013-07-13 14:02:00,
2013-07-13 09:11:00,70.0,62.0,30.08,WSW,250,1.0,8.0,77,0.00,,,0.00,,2013-07-13 14:11:00,
2013-07-13 09:22:00,70.0,62.0,30.08,WSW,250,1.0,8.0,77,0.00,,,0.00,,2013-07-13 14:22:00,
2013-07-13 09:32:00,72.0,63.0,30.08,NW,304,0.0,4.0,73,0.00,,,0.00,,2013-07-13 14:32:00,
2013-07-13 09:43:00,74.0,64.0,30.07,East,82,1.0,4.0,70,0.00,,,0.00,,2013-07-13 14:43:00,
2013-07-13 09:53:00,74.0,64.0,30.07,East,82,1.0,4.0,70,0.00,,,0.00,,2013-07-13 14:53:00,
2013-07-13 10:02:00,74.0,62.0,30.07,West,261,1.0,6.0,66,0.00,,,0.00,,2013-07-13 15:02:00,
2013-07-13 10:12:00,74.0,62.0,30.07,West,261,1.0,6.0,66,0.00,,,0.00,,2013-07-13 15:12:00,
2013-07-13 10:22:00,75.0,64.0,30.06,East,95,2.0,10.0,68,0.00,,,0.00,,2013-07-13 15:22:00,
2013-07-13 10:33:00,76.0,62.0,30.06,SSE,150,1.0,8.0,63,0.00,,,0.00,,2013-07-13 15:33:00,
2013-07-13 10:43:00,76.0,65.0,30.06,SE,130,0.0,6.0,68,0.00,,,0.00,,2013-07-13 15:43:00,
2013-07-13 10:53:00,76.0,65.0,30.06,SE,130,0.0,6.0,68,0.00,,,0.00,,2013-07-13 15:53:00,
2013-07-13 11:02:00,76.0,64.0,30.06,South,172,0.0,5.0,67,0.00,,,0.00,,2013-07-13 16:02:00,
2013-07-13 11:11:00,78.0,65.0,30.06,ENE,58,0.0,4.0,65,0.00,,,0.00,,2013-07-13 16:11:00,
2013-07-13 11:22:00,78.0,65.0,30.06,ENE,58,0.0,4.0,65,0.00,,,0.00,,2013-07-13 16:22:00,
2013-07-13 11:33:00,79.0,63.0,30.06,NNW,347,1.0,7.0,59,0.00,,,0.00,,2013-07-13 16:33:00,
2013-07-13 11:43:00,80.0,63.0,30.06,NE,53,1.0,5.0,57,0.00,,,0.00,,2013-07-13 16:43:00,
2013-07-13 11:53:00,80.0,63.0,30.06,NE,53,1.0,5.0,57,0.00,,,0.00,,2013-07-13 16:53:00,
2013-07-13 12:01:00,82.0,67.0,30.05,ENE,75,1.0,5.0,60,0.00,,,0.00,,2013-07-13 17:01:00,
2013-07-13 12:12:00,81.0,64.0,30.05,NW,317,1.0,6.0,57,0.00,,,0.00,,2013-07-13 17:12:00,
2013-07-13 12:22:00,81.0,64.0,30.05,NW,317,1.0,6.0,57,0.00,,,0.00,,2013-07-13 17:22:00,
2013-07-13 12:33:00,81.0,67.0,30.06,WNW,290,0.0,3.0,62,0.00,,,0.00,,2013-07-13 17:33:00,
2013-07-13 12:43:00,81.0,66.0,30.05,NW,316,1.0,4.0,61,0.00,,,0.00,,2013-07-13 17:43:00,
2013-07-13 12:52:00,81.0,66.0,30.05,NW,316,1.0,4.0,61,0.00,,,0.00,,2013-07-13 17:52:00,
2013-07-13 13:01:00,82.0,66.0,30.05,SE,126,0.0,3.0,58,0.00,,,0.00,,2013-07-13 18:01:00,
2013-07-13 13:22:00,83.0,66.0,30.05,SSE,153,0.0,6.0,56,0.00,,,0.00,,2013-07-13 18:22:00,
2013-07-13 13:32:00,83.0,67.0,30.05,SW,235,0.0,4.0,58,0.00,,,0.00,,2013-07-13 18:32:00,
2013-07-13 13:44:00,83.0,63.0,30.05,SSE,158,2.0,6.0,51,0.00,,,0.00,,2013-07-13 18:44:00,
2013-07-13 13:53:00,83.0,63.0,30.05,SSE,158,2.0,6.0,51,0.00,,,0.00,,2013-07-13 18:53:00,
2013-07-13 14:02:00,83.0,64.0,30.04,WNW,295,1.0,7.0,53,0.00,,,0.00,,2013-07-13 19:02:00,
2013-07-13 14:11:00,84.0,64.0,30.04,NE,39,1.0,4.0,51,0.00,,,0.00,,2013-07-13 19:11:00,
2013-07-13 14:22:00,84.0,64.0,30.04,NE,39,1.0,4.0,51,0.00,,,0.00,,2013-07-13 19:22:00,
2013-07-13 14:32:00,85.0,68.0,30.04,SE,145,0.0,4.0,56,0.00,,,0.00,,2013-07-13 19:32:00,
2013-07-13 14:44:00,85.0,65.0,30.05,ENE,65,1.0,6.0,51,0.00,,,0.00,,2013-07-13 19:44:00,
2013-07-13 14:52:00,85.0,65.0,30.05,ENE,65,1.0,6.0,51,0.00,,,0.00,,2013-07-13 19:52:00,
2013-07-13 15:01:00,85.0,64.0,30.05,SE,146,1.0,4.0,50,0.00,,,0.00,,2013-07-13 20:01:00,
2013-07-13 15:11:00,86.0,64.0,30.04,North,5,0.0,4.0,48,0.00,,,0.00,,2013-07-13 20:11:00,
2013-07-13 15:22:00,86.0,64.0,30.04,North,5,0.0,4.0,48,0.00,,,0.00,,2013-07-13 20:22:00,
2013-07-13 15:33:00,84.0,63.0,30.04,NNE,13,1.0,5.0,50,0.00,,,0.00,,2013-07-13 20:33:00,
2013-07-13 15:43:00,84.0,64.0,30.04,North,6,0.0,3.0,52,0.00,,,0.00,,2013-07-13 20:43:00,
2013-07-13 15:52:00,84.0,64.0,30.04,North,6,0.0,3.0,52,0.00,,,0.00,,2013-07-13 20:52:00,
2013-07-13 16:02:00,84.0,64.0,30.04,WNW,284,0.0,3.0,52,0.00,,,0.00,,2013-07-13 21:02:00,
2013-07-13 16:12:00,83.0,64.0,30.04,WNW,302,0.0,3.0,52,0.00,,,0.00,,2013-07-13 21:12:00,
2013-07-13 16:22:00,83.0,64.0,30.04,WNW,302,0.0,3.0,52,0.00,,,0.00,,2013-07-13 21:22:00,
2013-07-13 16:32:00,84.0,64.0,30.04,SE,142,0.0,3.0,51,0.00,,,0.00,,2013-07-13 21:32:00,
2013-07-13 16:42:00,84.0,63.0,30.05,WSW,246,0.0,6.0,49,0.00,,,0.00,,2013-07-13 21:42:00,
2013-07-13 16:53:00,84.0,63.0,30.05,WSW,246,0.0,6.0,49,0.00,,,0.00,,2013-07-13 21:53:00,
2013-07-13 17:01:00,84.0,63.0,30.05,West,278,0.0,4.0,49,0.00,,,0.00,,2013-07-13 22:01:00,
2013-07-13 17:12:00,84.0,63.0,30.04,ENE,61,0.0,6.0,49,0.00,,,0.00,,2013-07-13 22:12:00,
2013-07-13 17:22:00,84.0,63.0,30.04,ENE,61,0.0,6.0,49,0.00,,,0.00,,2013-07-13 22:22:00,
2013-07-13 17:32:00,84.0,63.0,30.05,ENE,64,0.0,5.0,50,0.00,,,0.00,,2013-07-13 22:32:00,
2013-07-13 17:43:00,83.0,64.0,30.05,WNW,293,0.0,8.0,52,0.00,,,0.00,,2013-07-13 22:43:00,
2013-07-13 17:53:00,83.0,64.0,30.05,WNW,293,0.0,8.0,52,0.00,,,0.00,,2013-07-13 22:53:00,
2013-07-13 18:01:00,81.0,63.0,30.05,ENE,58,0.0,4.0,54,0.00,,,0.00,,2013-07-13 23:01:00,
2013-07-13 18:11:00,80.0,62.0,30.05,North,4,0.0,7.0,54,0.00,,,0.00,,2013-07-13 23:11:00,
2013-07-13 18:22:00,80.0,62.0,30.05,North,4,0.0,7.0,54,0.00,,,0.00,,2013-07-13 23:22:00,
2013-07-13 18:32:00,81.0,65.0,30.05,SSW,205,0.0,2.0,58,0.00,,,0.00,,2013-07-13 23:32:00,
2013-07-13 18:42:00,79.0,62.0,30.05,East,91,0.0,5.0,56,0.00,,,0.00,,2013-07-13 23:42:00,
2013-07-13 18:53:00,79.0,62.0,30.05,East,91,0.0,5.0,56,0.00,,,0.00,,2013-07-13 23:53:00,
2013-07-13 19:01:00,78.0,61.0,30.06,NE,39,0.0,4.0,55,0.00,,,0.00,,2013-07-14 00:01:00,
2013-07-13 19:12:00,77.0,62.0,30.05,ESE,115,0.0,3.0,60,0.00,,,0.00,,2013-07-14 00:12:00,
2013-07-13 19:21:00,77.0,62.0,30.05,ESE,115,0.0,3.0,60,0.00,,,0.00,,2013-07-14 00:21:00,
2013-07-13 19:33:00,76.0,62.0,30.05,NNW,330,0.0,3.0,61,0.00,,,0.00,,2013-07-14 00:33:00,
2013-07-13 19:42:00,76.0,63.0,30.05,WNW,295,0.0,1.0,65,0.00,,,0.00,,2013-07-14 00:42:00,
2013-07-13 19:53:00,76.0,63.0,30.05,WNW,295,0.0,1.0,65,0.00,,,0.00,,2013-07-14 00:53:00,
2013-07-13 23:02:00,64.0,62.0,30.09,SSE,163,0.0,1.0,92,0.00,,,0.00,,2013-07-14 04:02:00,
2013-07-13 23:11:00,65.0,62.0,30.09,ESE,109,0.0,1.0,91,0.00,,,0.00,,2013-07-14 04:11:00,
2013-07-13 23:22:00,65.0,62.0,30.09,ESE,109,0.0,1.0,91,0.00,,,0.00,,2013-07-14 04:22:00,
2013-07-13 23:32:00,65.0,62.0,30.09,SE,138,0.0,0.0,90,0.00,,,0.00,,2013-07-14 04:32:00,
2013-07-13 23:42:00,64.0,61.0,30.10,SE,138,0.0,0.0,91,0.00,,,0.00,,2013-07-14 04:42:00,
2013-07-13 23:54:00,64.0,61.0,30.10,SE,138,0.0,0.0,91,0.00,,,0.00,,2013-07-14 04:54:00,